SCD 1

Last updated on Thu Oct 30 2025 00:02:30 GMT+0000 (Coordinated Universal Time)

1 22490U 93009B 25302.40460882 .00000577 00000+0 10693-3 0 9992 2 22490 24.9686 192.3654 0041933 215.4150 316.7670 14.45957718727672
UTC large
Height (km)
Speed (km/s)
/
Latitude / Longitude
Inclination (degrees)
Orbital Period (minutes)
Azimuth
Elevation
Range (km)
Doppler Factor

Next 0 passes for location: London (51.5072 / 0.1276)

Sorry there are no passes over London.